SCP
0 0 0 0 0 0 0 0 0 0 1 1 1 2 2 3 4 5 4 3 4 4 4 4 4 3 4 4 4 4 4 3 2 2 2 1 1 0 0 0 0 0 0 0
0 0 0 0 0 0 0 0 0 0 1 1 1 1 2 2 3 4 3 3 3 4 4 4 4 4 4 3 3 3 3 3 2 2 2 1 1 0 0 0 0 0 0 0
0 0 0 0 0 0 0 0 0 0 1 1 1 1 1 2 2 3 2 2 2 3 3 3 4 4 4 3 3 3 3 2 2 2 2 1 1 1 0 0 0 0 0 0
0 0 0 0 0 0 0 0 0 0 0 1 1 1 1 1 1 2 2 2 1 2 2 3 3 3 3 3 2 2 2 2 1 1 1 1 1 1 0 0 0 0 0 0
0 0 0 0 0 0 0 0 0 0 0 0 0 0 1 1 1 1 1 1 1 1 2 2 2 2 2 2 3 3 2 1 1 1 1 1 1 0 0 0 0 0 0 0
0 0 0 0 0 0 0 0 0 0 0 0 0 0 1 1 1 1 1 1 1 1 2 2 2 2 2 2 3 3 3 2 1 1 0 0 0 0 0 0 0 0 0 0
0 0 0 0 0 0 0 0 0 0 0 0 0 0 0 0 0 0 0 0 1 1 2 2 2 2 2 2 3 3 3 2 1 0 0 0 0 0 0 0 0 0 0 0
0 0 0 0 0 0 0 0 0 0 0 0 0 0 0 0 0 0 0 1 1 1 1 1 2 2 2 3 3 4 3 2 1 0 0 0 0 0 0 0 0 0 0 0
0 0 0 0 0 0 0 0 0 0 0 0 0 0 0 0 0 0 1 1 1 1 1 1 1 2 2 2 3 4 4 2 1 1 0 0 0 0 0 0 0 0 0 0
0 0 0 0 0 0 0 0 0 0 0 0 0 0 0 0 0 0 1 1 1 1 1 1 1 1 1 2 3 3 3 2 1 1 1 0 0 0 0 0 0 0 0 0
0 0 0 0 0 0 1 1 0 0 0 0 0 0 0 0 0 0 0 1 1 1 1 1 1 1 1 2 2 2 2 2 1 1 1 1 1 1 1 1 0 0 0 0
0 0 0 0 0 1 1 1 0 0 0 0 0 0 0 1 0 0 0 0 1 1 1 1 1 1 2 2 2 2 2 2 1 1 1 1 1 1 1 1 1 0 0 0
0 0 0 0 0 0 1 1 0 0 0 0 0 1 1 1 1 1 1 1 1 1 1 1 1 2 2 3 3 2 2 2 1 1 1 1 1 1 1 1 1 1 1 1
0 0 0 0 0 0 0 0 0 0 0 0 0 1 1 1 1 1 1 1 1 1 1 1 1 2 2 3 3 2 2 2 1 1 1 1 1 1 1 1 1 1 1 1
0 0 0 0 0 0 0 0 0 0 0 0 1 1 1 1 1 2 2 2 1 1 1 1 1 2 2 3 3 3 3 2 1 1 1 1 1 1 1 1 1 1 1 1
0 0 0 0 1 0 0 1 1 1 1 1 1 1 1 2 3 3 3 2 2 1 1 1 1 1 2 2 2 3 3 2 1 1 1 1 1 1 1 1 1 1 1 1
0 0 0 0 1 1 1 1 1 2 1 1 1 2 3 4 4 3 3 3 2 1 1 1 1 1 1 1 1 2 2 2 1 1 1 1 1 1 1 0 0 1 1 1
0 0 0 0 1 1 1 1 1 2 2 2 2 4 5 5 4 3 2 3 2 1 1 1 1 1 1 1 1 1 1 1 1 0 0 0 0 0 0 0 0 0 1 1
0 0 0 0 1 1 1 1 2 2 2 3 4 4 5 4 3 2 2 2 1 1 1 1 1 0 0 0 0 0 0 0 0 0 0 0 0 0 0 0 0 0 0 0
0 0 0 0 0 0 1 1 2 2 3 4 4 4 4 3 3 1 1 1 1 0 0 0 0 0 0 0 0 0 0 0 0 0 0 0 0 0 0 0 0 0 0 0
0 0 0 0 0 0 1 1 2 2 3 4 4 4 3 2 1 1 0 0 0 0 0 0 0 0 0 0 0 0 0 0 0 0 0 0 0 0 0 0 0 0 0 0
0 0 0 0 0 0 1 1 1 1 2 3 3 3 2 1 1 0 0 0 0 0 0 0 0 0 0 0 0 0 0 0 0 0 0 0 0 0 0 0 0 0 0 0
0 0 0 0 0 0 1 1 1 2 2 2 2 1 1 0 0 0 0 0 0 0 0 0 0 0 0 0 0 0 0 0 0 0 0 0 0 0 0 0 0 0 0 0
0 0 0 0 0 0 1 1 2 2 2 1 1 1 0 0 0 0 0 0 0 0 0 0 0 0 0 0 0 0 0 0 0 0 0 0 0 0 0 0 0 0 0 0
0 0 0 0 0 0 1 1 1 1 1 1 1 0 0 0 0 0 0 0 0 0 0 0 0 0 0 0 0 0 0 0 0 0 0 0 0 0 0 0 0 0 0 0
0 0 0 0 0 0 1 1 1 1 1 0 0 0 0 0 0 0 0 0 0 0 0 0 0 0 0 0 0 0 0 0 0 0 0 0 0 0 0 0 0 0 0 0
Wind_Speed
4 1 7 11 9 12 12 9 7 5 2 5 5 4 4 5 5 6 6 6 7 7 6 7 8 9 8 8 9 10 9 8 7 6 6 5 4 4 3 3 4 4 4 4
4 9 15 12 14 14 12 8 4 2 5 6 5 3 2 4 5 7 7 6 6 6 7 7 8 8 8 8 9 9 9 9 8 6 5 4 5 3 3 2 3 4 4 4
10 14 11 12 14 12 9 5 3 2 5 6 4 2 2 1 2 4 6 6 6 9 10 10 10 10 10 10 10 10 9 8 7 7 5 4 4 3 2 2 2 2 4 4
9 13 12 13 14 10 8 4 1 3 4 3 3 1 6 3 2 3 4 5 6 7 8 9 10 10 10 10 9 9 8 8 7 7 7 8 6 4 4 3 3 3 3 4
9 8 9 11 11 9 6 1 4 4 5 4 4 1 6 2 2 3 4 6 7 8 10 10 10 10 10 10 9 9 9 7 6 6 7 7 5 4 3 3 4 3 2 3
13 12 8 11 13 9 3 4 6 6 6 4 2 1 7 4 5 4 4 6 7 9 10 9 9 8 8 8 8 9 9 7 7 7 6 7 7 6 5 5 4 3 2 2
11 13 10 9 10 11 4 4 4 6 5 2 3 1 9 8 4 6 7 7 7 9 10 10 10 9 9 9 9 9 10 8 7 7 6 6 7 7 7 6 6 4 3 3
7 10 8 6 7 7 6 5 6 4 4 2 2 5 8 7 3 3 6 7 8 9 9 11 11 11 10 11 11 11 11 9 8 8 6 5 6 5 4 5 5 5 5 5
9 11 9 7 6 4 3 3 7 7 3 3 3 5 9 3 0 2 5 7 8 9 10 11 11 11 11 11 11 12 12 10 9 8 7 6 5 5 5 5 5 4 4 5
9 8 10 8 3 4 4 6 5 5 4 2 3 4 5 4 4 4 6 8 9 9 10 11 11 11 11 10 10 10 11 11 9 9 8 7 6 6 6 5 5 5 5 5
4 6 7 3 4 7 2 2 5 5 6 7 4 7 8 9 8 8 9 9 9 10 11 11 11 10 10 9 10 11 11 10 9 9 8 7 6 6 6 5 6 6 5 5
1 4 4 7 6 4 5 6 8 6 4 5 5 7 4 8 8 9 9 8 9 10 10 11 11 10 9 9 10 11 11 11 10 9 8 7 6 5 6 6 6 5 5 5
3 4 3 7 8 7 2 1 4 6 5 5 5 6 2 3 5 6 7 8 8 9 9 9 9 9 9 9 9 9 9 10 9 8 7 6 5 5 5 5 4 4 3 4
4 4 4 5 6 4 4 4 3 6 4 5 7 7 4 5 5 4 5 6 7 6 6 6 6 6 7 8 8 8 8 7 7 6 6 5 4 4 3 2 1 2 2 3
5 2 1 4 5 3 4 7 5 5 8 8 9 10 11 11 8 6 6 8 8 7 6 6 6 5 5 5 4 5 5 5 6 6 5 4 3 2 2 2 1 1 2 2
3 1 2 4 3 4 6 6 5 5 4 4 6 6 6 6 5 6 7 10 10 9 9 8 8 8 7 7 7 7 7 6 7 7 5 4 3 2 2 2 2 2 1 0
1 2 1 4 4 4 5 3 3 3 2 7 9 9 9 8 8 7 9 11 12 11 10 10 9 9 9 8 9 9 8 9 9 8 7 6 6 5 4 4 4 4 3 2
4 3 2 2 1 7 6 2 2 2 2 3 6 9 12 11 9 7 8 12 13 12 11 10 10 10 9 9 10 10 10 10 10 9 8 7 6 6 5 5 4 3 3 3
3 5 3 3 4 6 4 2 2 2 3 1 11 16 17 17 15 11 8 11 13 12 11 10 9 10 10 9 9 11 10 10 10 9 7 6 6 6 5 5 4 3 3 3
3 3 4 3 4 6 4 2 2 2 2 0 10 17 17 11 9 6 8 13 14 13 11 11 10 11 11 8 9 12 10 9 8 7 6 5 5 5 5 4 3 3 3 3
2 1 3 4 5 6 2 3 2 3 5 2 6 10 8 4 8 13 13 13 13 13 11 11 11 10 8 7 10 11 9 7 5 5 5 5 4 4 4 3 3 4 4 4
3 2 3 3 4 6 1 0 3 4 2 6 7 8 12 16 17 15 14 14 13 12 11 10 11 9 7 7 9 10 7 5 5 5 5 4 4 3 3 3 3 3 3 4
4 4 3 4 4 3 2 2 3 2 4 7 9 11 18 19 17 15 13 12 12 11 9 8 10 9 7 6 8 8 5 5 6 6 5 4 4 4 3 3 3 2 2 2
3 2 2 2 2 3 2 0 1 2 6 9 14 16 17 19 17 15 13 11 10 9 8 8 9 9 7 5 6 6 4 5 6 6 4 4 4 4 4 3 2 2 2 2
3 2 2 2 2 2 3 1 4 8 12 16 16 14 14 18 17 14 12 11 9 8 7 7 8 8 6 5 5 4 4 5 6 5 4 4 4 3 3 3 2 2 2 3
3 4 3 3 3 2 0 3 9 13 15 16 17 15 13 14 15 13 10 9 9 8 7 7 7 6 5 5 4 3 4 5 5 4 4 3 3 3 3 3 4 7 6 8
Wind_Direction
287 298 255 254 239 235 261 275 281 293 342 88 105 127 153 151 146 157 162 165 164 164 166 160 159 162 165 154 152 153 151 146 141 139 141 141 142 146 142 150 148 131 121 107
318 271 258 267 272 270 270 276 276 333 46 93 102 110 174 159 176 177 177 178 168 158 158 166 163 166 168 166 160 158 158 153 154 151 150 146 143 151 154 153 147 141 132 125
232 255 275 284 287 285 282 258 238 165 81 62 90 11 311 267 174 181 174 178 176 171 167 169 169 169 171 174 169 168 165 158 158 149 130 119 100 93 97 138 160 162 144 134
244 258 271 279 283 287 289 276 155 101 87 29 53 316 287 280 267 207 183 180 183 172 168 171 174 173 177 179 171 165 167 162 158 149 147 148 148 159 182 181 177 172 158 149
248 263 280 284 284 295 284 358 66 76 98 69 23 76 290 294 256 228 196 193 186 178 174 175 176 175 178 177 171 167 166 164 161 156 156 153 153 167 163 159 163 172 174 171
248 260 255 264 281 284 259 64 46 50 68 46 301 153 276 250 226 209 197 192 182 176 175 174 175 172 175 174 171 169 166 170 169 163 164 164 164 162 157 165 172 183 190 196
268 271 266 264 281 298 324 75 19 353 22 256 271 237 256 256 238 203 193 186 177 173 175 177 178 178 179 178 176 173 171 174 176 174 175 177 170 165 169 174 180 180 190 204
234 272 255 244 224 238 264 151 169 211 218 222 284 251 263 276 271 198 182 173 171 174 177 180 182 181 184 184 181 175 176 178 181 181 186 183 173 166 175 181 182 189 198 205
204 242 248 241 248 213 225 215 175 141 131 128 247 277 303 298 310 154 162 168 184 183 183 181 181 183 187 188 185 181 179 181 184 186 187 189 185 181 186 189 190 195 204 209
189 236 262 255 284 298 184 165 102 119 150 188 237 249 241 242 213 201 188 186 191 184 182 183 186 188 190 189 186 182 181 184 186 189 192 196 196 197 197 194 203 205 206 205
181 204 278 308 223 233 249 141 129 137 154 154 201 248 221 204 198 195 200 192 188 188 189 188 189 192 191 188 185 187 187 185 189 194 197 199 199 201 201 203 211 211 209 199
274 157 250 264 264 227 196 184 151 154 204 162 171 252 244 197 199 194 197 191 187 188 194 192 187 185 185 187 186 189 190 190 194 195 195 200 200 200 205 214 217 211 211 205
342 90 24 341 341 352 348 185 148 135 131 153 165 240 252 192 194 198 190 184 181 184 192 189 183 185 180 180 184 187 190 193 193 188 190 195 198 197 205 215 219 211 210 212
62 85 149 207 240 262 290 279 181 132 153 186 198 194 210 200 193 177 170 166 160 162 168 162 165 170 168 172 175 176 185 188 179 170 171 181 191 186 189 196 197 209 205 203
66 77 273 250 248 232 252 264 226 190 183 178 199 184 201 200 186 167 144 130 122 128 127 131 133 133 135 134 135 134 136 137 147 144 150 165 156 150 146 140 180 199 193 197
69 109 338 309 314 313 289 276 253 225 192 185 167 201 206 178 135 118 122 124 119 114 108 103 100 97 96 102 106 102 102 101 103 107 108 109 105 101 90 83 76 72 69 114
113 116 351 277 301 333 278 270 268 254 199 169 188 198 158 144 138 137 130 121 117 115 109 102 97 93 91 89 96 98 96 95 94 93 93 89 86 83 84 85 74 66 64 76
163 152 173 234 331 248 242 294 316 275 274 207 173 146 134 121 103 87 108 118 113 108 103 98 97 92 87 86 87 90 88 88 88 83 80 80 83 82 75 71 68 63 63 69
164 157 163 176 221 261 289 320 22 23 324 49 136 131 123 115 89 67 77 103 108 106 101 96 94 94 89 86 89 89 84 86 87 86 83 79 82 82 76 72 65 57 60 53
47 117 152 181 204 230 232 301 322 56 278 249 139 142 142 130 119 134 118 108 104 100 98 96 92 89 86 85 90 90 86 84 83 85 87 85 85 85 78 69 61 52 60 60
338 356 183 191 221 251 253 300 346 187 221 179 149 143 131 91 121 129 121 109 106 103 100 97 93 88 86 87 90 89 86 85 88 88 83 78 80 89 86 68 61 70 70 63
228 220 210 183 207 240 271 287 193 213 202 150 129 115 104 106 111 118 118 114 111 107 103 101 98 93 85 85 89 87 83 86 82 75 70 62 56 63 77 75 63 70 83 79
227 212 210 211 224 260 248 232 274 210 136 124 124 121 125 123 125 123 120 118 114 112 109 106 105 99 89 85 90 90 86 81 74 64 52 41 39 36 41 64 67 62 69 81
256 218 221 263 284 289 289 271 287 149 122 122 126 131 133 127 127 126 124 120 118 116 115 111 106 103 99 93 92 98 93 81 72 61 45 37 37 24 24 33 52 64 62 69
248 220 223 253 268 318 341 85 137 113 111 118 120 125 128 126 126 125 123 121 119 116 112 111 111 111 113 105 95 92 88 78 68 55 42 35 34 32 28 29 40 62 65 114
236 206 190 216 214 159 305 85 116 113 116 120 120 116 115 120 121 120 118 117 117 114 112 112 114 116 118 111 98 85 84 84 74 49 32 31 29 29 36 41 40 48 67 74